Location: Asheville, NC
(35.6000°N, 82.5500°W)
Time: 17:46:28
(UTC-04:00)

STRAND 1 - Pass Details

Date: 09 January 2018
Orbit: 769 x 781 km, 98.5° (Epoch: 16 July)

Event Time Altitude Azimuth Distance (km) Brightness Sun altitude
Rises 06:41:00 0° 147° (SSE) 3,224 ? -11.9°
Reaches altitude 10° 06:43:24 10° 140° (SE) 2,300 ? -11.5°
Maximum altitude 06:48:07 41° 71° (ENE) 1,104 ? -10.6°
Drops below altitude 10° 06:52:52 10° 3° (N) 2,313 ? -9.7°
Sets 06:55:17 0° 356° (N) 3,244 ? -9.2°
